Tracking 29781 objects as of 16-Oct-2024
HD Live streaming from Space Station
objects crossing your sky now

THOR ABLESTAR DEB

Track THOR ABLESTAR DEB now!
10-day predictions


NORAD ID: 653
Int'l Code: 1961-015HE
Perigee: 895.1 km
Apogee: 1,125.8 km
Inclination: 67.4 °
Period: 105.2 minutes
Semi major axis: 7381 km
RCS: 0.0608 m2 (small)
Launch date: June 29, 1961
Source: United States (US)
Launch site: AIR FORCE EASTERN TEST RANGE (AFETR)

Note: This is SATELLITE DEBRIS
Your satellite tracking list
Your tracking list is empty




NASA's NSSDC Master Catalog

Two Line Element Set (TLE):
1 00653U 61015HE  24288.55739674  .00002109  00000-0  23128-2 0  9997
2 00653  67.4491 130.1895 0156262 106.4300 286.5834 13.68951146134255
Source of the keplerian elements: AFSPC